Location: Cucq
(50.4773°N, 1.6202°E)
Time: 20:58:37
(UTC+00:00)

Cosmos 1908 - Pass Details

Date: 07 August 2020
Orbit: 510 x 531 km, 82.5° (Epoch: 22 September)

Event Time Altitude Azimuth Distance (km) Brightness Sun altitude
Rises 03:38:44 0° 182° (S) 2,659 6.4 -7.8°
Reaches altitude 10° 03:40:52 10° 179° (S) 1,776 5.6 -7.5°
Maximum altitude 03:44:45 67° 97° (E) 583 3.7 -7.0°
Drops below altitude 10° 03:48:40 10° 15° (NNE) 1,795 6.8 -6.5°
Sets 03:50:50 0° 13° (NNE) 2,691 7.7 -6.2°
